Weather History for LHBP - October, 2011

Change the Weather History Date:

Wednesday, October 19, 2011

  Actual Average (WUND) Record (WUND)
Temperature  
Mean Temperature 46 °F -  
Max Temperature 62 °F 51 °F - (-1)
Min Temperature 30 °F 36 °F - (-1)
Degree Days  
Heating Degree Days 19    
Moisture  
Dew Point 31 °F    
Average Humidity 54    
Maximum Humidity 70    
Minimum Humidity 41    
Precipitation  
Precipitation 0.00 in - - ()
Sea Level Pressure  
Sea Level Pressure 30.05 in    
Wind  
Wind Speed 6 mph ()    
Max Wind Speed 12 mph    
Max Gust Speed -    
Visibility 4.5 miles    
Events      
Averages and records for this station are not official NWS values.
T = Trace of Precipitation, MM = Missing Value Source: Averaged Metar Reports

Daily Weather History Graph

Daily Weather History Graph

Search for Another Location

Airport or City:

Trip Planner

Search our weather history database for the weather conditions in past years. The results will help you decide how hot, cold, wet, or windy it might be!

Date:

Astronomy

Oct. 19, 2011 Rise Set
Actual Time 7:06 AM CEST 5:48 PM CEST
Civil Twilight 6:35 AM CEST 6:19 PM CEST
Nautical Twilight 5:59 AM CEST 6:55 PM CEST
Astronomical Twilight 5:24 AM CEST 7:30 PM CEST
Moon 11:03 PM CEST (10/19) 1:38 PM CEST (10/19)
Length of Visible Light 11h 44m
Length of Day
10h 42m
Waning Gibbous, 57% of the Moon is Illuminated
Oct 19
Waning Gibbous
Oct 20
Last Quarter
Oct 26
New
Nov 2
First Quarter
Nov 10
Full

Hourly Weather History & Observations

Time (CEST) Temp. Windchill Dew Point Humidity Pressure Visibility Wind Dir Wind Speed Gust Speed Precip Events Conditions
12:00 AM 33.8 °F 29.6 °F 21.2 °F 60% 30.09 in - ENE 4.6 mph - N/A   Clear
12:30 AM 32.0 °F 27.5 °F 19.4 °F 60% 30.09 in - ENE 4.6 mph - N/A   Clear
1:00 AM 33.8 °F 29.6 °F 21.2 °F 60% 30.09 in - ENE 4.6 mph - N/A   Clear
1:30 AM 35.6 °F 30.7 °F 21.2 °F 56% 30.12 in - ENE 5.8 mph - N/A   Clear
2:00 AM 33.8 °F 29.6 °F 21.2 °F 60% 30.09 in - East 4.6 mph - N/A   Clear
2:30 AM 37.4 °F 32.1 °F 21.2 °F 52% 30.09 in - East 6.9 mph - N/A   Clear
3:00 AM 35.6 °F 30.7 °F 21.2 °F 56% 30.09 in - East 5.8 mph - N/A   Clear
3:30 AM 35.6 °F 30.7 °F 21.2 °F 56% 30.09 in - East 5.8 mph - N/A   Clear
4:00 AM 33.8 °F 28.6 °F 21.2 °F 60% 30.06 in - East 5.8 mph - N/A   Clear
4:30 AM 35.6 °F 30.7 °F 21.2 °F 56% 30.09 in - ENE 5.8 mph - N/A   Clear
5:00 AM 35.6 °F 29.9 °F 21.2 °F 56% 30.09 in 5.0 mi ENE 6.9 mph - N/A   Partly Cloudy
5:30 AM 33.8 °F 27.7 °F 23.0 °F 65% 30.09 in 3.7 mi East 6.9 mph - N/A   Unknown
6:00 AM 30.2 °F 24.3 °F 21.2 °F 69% 30.09 in 3.7 mi East 5.8 mph - N/A   Unknown
6:30 AM 33.8 °F 27.7 °F 24.8 °F 70% 30.09 in 4.3 mi East 6.9 mph - N/A   Unknown
7:00 AM 32.0 °F 24.8 °F 23.0 °F 69% 30.09 in 3.1 mi East 8.1 mph - N/A   Scattered Clouds
7:30 AM 33.8 °F 27.7 °F 23.0 °F 65% 30.09 in 3.1 mi East 6.9 mph - N/A   Partly Cloudy
8:00 AM 37.4 °F 31.4 °F 24.8 °F 60% 30.09 in 3.1 mi East 8.1 mph - N/A   Haze
8:30 AM 39.2 °F 34.2 °F 24.8 °F 56% 30.09 in 3.1 mi East 6.9 mph - N/A   Haze
9:00 AM 41.0 °F 35.8 °F 24.8 °F 53% 30.09 in 3.7 mi East 8.1 mph - N/A   Unknown
9:30 AM 42.8 °F 37.0 °F 24.8 °F 49% 30.09 in 3.7 mi East 10.4 mph - N/A   Unknown
10:00 AM 42.8 °F 37.5 °F 26.6 °F 53% 30.09 in 3.7 mi ESE 9.2 mph - N/A   Unknown
10:30 AM 44.6 °F 39.7 °F 26.6 °F 49% 30.09 in 3.7 mi East 9.2 mph - N/A   Unknown
11:00 AM 46.4 °F 41.9 °F 28.4 °F 50% 30.09 in 5.0 mi East 9.2 mph - N/A   Unknown
11:30 AM 50.0 °F - 30.2 °F 47% 30.09 in 5.0 mi ESE 9.2 mph - N/A   Unknown
12:00 PM 53.6 °F - 32.0 °F 44% 30.09 in 5.0 mi ESE 9.2 mph - N/A   Unknown
12:30 PM 53.6 °F - 32.0 °F 44% 30.06 in 5.0 mi ESE 8.1 mph - N/A   Unknown
1:00 PM 55.4 °F - 33.8 °F 44% 30.06 in 5.0 mi East 10.4 mph - N/A   Partly Cloudy
1:30 PM 57.2 °F - 33.8 °F 41% 30.04 in 5.0 mi East 11.5 mph - N/A   Partly Cloudy
2:00 PM 57.2 °F - 35.6 °F 44% 30.04 in 5.0 mi East 11.5 mph - N/A   Partly Cloudy
2:30 PM 59.0 °F - 37.4 °F 45% 30.04 in 5.0 mi East 11.5 mph - N/A   Mostly Cloudy
3:00 PM 62.6 °F - 39.2 °F 42% 30.01 in 5.0 mi East 10.4 mph - N/A   Scattered Clouds
3:30 PM 60.8 °F - 37.4 °F 42% 30.01 in 5.0 mi East 9.2 mph - N/A   Unknown
4:00 PM 60.8 °F - 39.2 °F 45% 30.01 in 5.0 mi East 10.4 mph - N/A   Mostly Cloudy
4:30 PM 60.8 °F - 39.2 °F 45% 30.01 in 5.0 mi East 10.4 mph - N/A   Mostly Cloudy
5:00 PM 60.8 °F - 41.0 °F 48% 29.98 in 5.0 mi East 9.2 mph - N/A   Mostly Cloudy
5:30 PM 59.0 °F - 39.2 °F 48% 29.98 in 5.0 mi East 6.9 mph - N/A   Unknown
6:00 PM 59.0 °F - 39.2 °F 48% 29.98 in 5.0 mi East 5.8 mph - N/A   Mostly Cloudy
6:30 PM 59.0 °F - 39.2 °F 48% 29.98 in 3.7 mi East 8.1 mph - N/A   Unknown
7:00 PM 57.2 °F - 39.2 °F 51% 30.01 in 5.0 mi North 4.6 mph - N/A   Mostly Cloudy
7:30 PM 55.4 °F - 39.2 °F 54% 30.01 in 5.0 mi Variable 3.5 mph - N/A   Mostly Cloudy
8:00 PM 55.4 °F - 39.2 °F 54% 30.01 in 5.0 mi Calm Calm - N/A   Unknown
8:30 PM 60.8 °F - 44.6 °F 55% 30.01 in 5.0 mi SSW 8.1 mph - N/A   Unknown
9:00 PM 60.8 °F - 44.6 °F 55% 30.01 in 4.3 mi SSW 6.9 mph - N/A   Unknown
9:30 PM 60.8 °F - 44.6 °F 55% 30.01 in 5.0 mi SSW 6.9 mph - N/A   Unknown
10:00 PM 60.8 °F - 44.6 °F 55% 30.01 in - South 8.1 mph - N/A   Clear
10:30 PM 59.0 °F - 44.6 °F 59% 30.01 in - South 8.1 mph - N/A   Clear
11:00 PM 57.2 °F - 44.6 °F 63% 30.01 in - South 6.9 mph - N/A   Clear
11:30 PM 57.2 °F - 44.6 °F 63% 30.01 in - SSW 5.8 mph - N/A   Clear